This is the latest recevied weather packets stored in our database for station/object K4CRS-13. If no packets are shown the sender has not sent any weather packets the latest 10 day(s).
| Time | Temp. | Humidity | Pressure | Rain* | Wind** | Luminosity | Snow |
|---|---|---|---|---|---|---|---|
| 1777566548 | 16.11° C | 64% | 1050.5 hPa | 0 mm | - | 461 W/m² | - |
| 1777566245 | 16.11° C | 64% | 1050.6 hPa | 0 mm | - | 563 W/m² | - |
| 1777565942 | 16.11° C | 65% | 1050.5 hPa | 0 mm | - | 470 W/m² | - |
| 1777565637 | 16.11° C | 68% | 1050.5 hPa | 0 mm | - | 485 W/m² | - |
| 1777565334 | 15.56° C | 69% | 1050.6 hPa | 0 mm | - | 404 W/m² | - |
| 1777565030 | 15.56° C | 66% | 1050.3 hPa | 0 mm | - | 427 W/m² | - |
| 1777564725 | 15° C | 67% | 1050.4 hPa | 0 mm | - | 389 W/m² | - |
| 1777564420 | 15.56° C | 67% | 1050.6 hPa | 0 mm | - | 379 W/m² | - |
| 1777564117 | 15.56° C | 67% | 1050.5 hPa | 0 mm | - | 488 W/m² | - |
| 1777563813 | 16.11° C | 67% | 1050.4 hPa | 0 mm | - | 351 W/m² | - |
| 1777563510 | 15.56° C | 68% | 1050.5 hPa | 0 mm | - | 491 W/m² | - |
| 1777563209 | 15.56° C | 69% | 1050.6 hPa | 0 mm | - | 519 W/m² | - |
| 1777562906 | 15° C | 68% | 1050.3 hPa | 0 mm | - | 721 W/m² | - |
| 1777562602 | 15.56° C | 67% | 1050.5 hPa | 0 mm | - | 693 W/m² | - |
| 1777562300 | 15° C | 67% | 1050.6 hPa | 0 mm | - | 707 W/m² | - |
| 1777561997 | 15° C | 69% | 1050.3 hPa | 0 mm | - | 627 W/m² | - |
| 1777561694 | 14.44° C | 71% | 1050.3 hPa | 0 mm | - | 532 W/m² | - |
| 1777561390 | 14.44° C | 68% | 1050.3 hPa | 0 mm | - | 423 W/m² | - |
| 1777561085 | 14.44° C | 70% | 1050.1 hPa | 0 mm | - | 360 W/m² | - |
| 1777560781 | 14.44° C | 72% | 1050.1 hPa | 0 mm | - | 359 W/m² | - |
| 1777560478 | 14.44° C | 72% | 1050.4 hPa | 0 mm | - | 460 W/m² | - |
| 1777560176 | 14.44° C | 73% | 1050.1 hPa | 0 mm | - | 337 W/m² | - |
| 1777559873 | 13.89° C | 73% | 1050.2 hPa | 0 mm | - | 383 W/m² | - |
| 1777559568 | 14.44° C | 74% | 1050.1 hPa | 0 mm | - | 295 W/m² | - |
| 1777559266 | 13.89° C | 72% | 1050.1 hPa | 0 mm | - | 426 W/m² | - |
* Rain latest hour (hover to see other rain measurements)
** Current wind speed in m/s (hover to see current wind gust speed)